{"data":{"norad_id":60447,"intl_designator":"2024-144Y","name":"STARLINK-32101","alt_names":[],"object_type":"PAYLOAD","status":"ACTIVE","operator":null,"country":"US","launch_date":"2024-08-12","launch_site_code":"AFETR","launch_vehicle":null,"mission":null,"orbit_class":"UNKNOWN","rcs_meters":null,"size_class":null,"mass_kg":null,"dimensions":null,"purposes":["comms"],"wikipedia_slug":null,"has_3d_model":false,"image_url":null,"decayed_at":null,"tle_current":{"epoch":"2026-09-21T16:25:00.897888Z","epoch_age_seconds":86213,"freshness":"FRESH","line1":"1 60447U 24144Y   26264.68403817 -.00000278  00000+0  29026-5 0  9994","line2":"2 60447  53.1593  22.0112 0000955  57.7494 302.3601 15.34395159119384","mean_motion":15.34395159,"eccentricity":9.55e-5,"inclination_deg":53.1593,"raan_deg":22.0112,"arg_perigee_deg":57.7494,"mean_anomaly_deg":302.3601,"bstar":2.9026e-6,"rev_number":11938,"period_min":93.848054169988,"perigee_km":462.06432710009,"apogee_km":463.37093033417,"semimajor_km":6840.8546287171,"source":"CELESTRAK","updated_at":"2026-09-22T09:00:49.238095Z"}}}